Adventuress — WCX8691 — position and weather

sailwx.info

Track history (hours):
 
Tides and Currents Weather Stations Pressure Air Temp Water Temp Dewpoint Dewpoint Depression Visibility Wind Speed Wind Dir Waves Ship Positions

Adventuress (United States)

Ship's website: http://www.soundexp.org/

Owner: SOUND EXPERIENCE, PORT TOWNSEND, WA. More information available from US FCC via Universal Licensing System and Coast Guard Vessel Documentation Center.

Last reported at 2014-Oct-22 21:13 UTC. Time now 2014-Oct-23 00:38 UTC.
Position N 47°57' W 122°36'.

Length 43 m.

Type: Passenger vessel. MMSI: 367323180.

Date/timePositionNaut miles runAvg speedWind from/ knotsBaromVisibWave heightAir tempDewpointWater temp
2014-Oct-22 21:13N 47°57' W 122°36'1 1.5
2014-Oct-22 20:33N 47°57' W 122°34'4 4.5
2014-Oct-22 19:38N 47°54' W 122°30'1 6.3
2014-Oct-22 19:33N 47°53' W 122°30'2 5.1
2014-Oct-22 19:08N 47°52' W 122°28'3 5.6
2014-Oct-22 18:34N 47°48' W 122°27'0 6.0
2014-Oct-22 18:33N 47°48' W 122°27'7 6.7
2014-Oct-22 17:33N 47°42' W 122°28'0 0.0
2014-Oct-22 17:33N 47°42' W 122°28'5 4.9
2014-Oct-22 16:32N 47°38' W 122°24'0 0.0
2014-Oct-20 20:04N 47°37' W 122°24'0 0.8
2014-Oct-20 19:44N 47°37' W 122°24'2 5.5
2014-Oct-20 19:25N 47°38' W 122°26'0 3.2
2014-Oct-20 19:24N 47°38' W 122°26'0 0.4
2014-Oct-20 18:33N 47°38' W 122°27'2 1.4
2014-Oct-20 17:30N 47°37' W 122°24'1 0.0
2014-Oct-19 22:08N 47°38' W 122°23'0 0.3
2014-Oct-19 22:07N 47°38' W 122°23'1 1.4
2014-Oct-19 21:28N 47°37' W 122°24'0 5.0
2014-Oct-19 21:22N 47°37' W 122°24'4 4.5
2014-Oct-19 20:33N 47°33' W 122°26'5 4.5
2014-Oct-19 19:33N 47°29' W 122°29'7 3.4
2014-Oct-19 17:33N 47°23' W 122°32'3 2.6
2014-Oct-19 16:33N 47°21' W 122°29'1 0.8
2014-Oct-19 15:31N 47°22' W 122°28'0 0.0
2014-Oct-19 14:31N 47°22' W 122°28'0 0.0
2014-Oct-19 13:31N 47°22' W 122°28'0 0.0
2014-Oct-19 12:31N 47°22' W 122°28'0 0.0
2014-Oct-19 11:31N 47°22' W 122°28'0 0.0
2014-Oct-19 10:28N 47°22' W 122°28'0 0.0
2014-Oct-19 09:31N 47°22' W 122°28'0 0.0
2014-Oct-19 08:31N 47°22' W 122°28'0 0.0
2014-Oct-19 07:31N 47°22' W 122°28'0 0.0
2014-Oct-19 06:31N 47°22' W 122°28'0 0.0
2014-Oct-19 05:31N 47°22' W 122°28'0 0.0
2014-Oct-19 04:31N 47°22' W 122°28'0 0.0
2014-Oct-19 03:28N 47°22' W 122°28'0 0.0
2014-Oct-19 02:31N 47°22' W 122°28'0 0.0
2014-Oct-19 01:31N 47°22' W 122°28'0 0.0
2014-Oct-19 00:33N 47°22' W 122°28'3 3.1
2014-Oct-18 23:32N 47°19' W 122°29'  
Track history (hours):
 
Tides and Currents Weather Stations Pressure Air Temp Water Temp Dewpoint Dewpoint Depression Visibility Wind Speed Wind Dir Waves Ship Positions

Adventuress (United States)

Ship's website: http://www.soundexp.org/

Owner: SOUND EXPERIENCE, PORT TOWNSEND, WA. More information available from US FCC via Universal Licensing System and Coast Guard Vessel Documentation Center.

Last reported at 2014-Oct-22 21:13 UTC. Time now 2014-Oct-23 00:38 UTC.
Position N 47°57' W 122°36'.

Length 43 m.

Type: Passenger vessel. MMSI: 367323180.

Date/timePositionNaut miles runAvg speedWind from/ knotsBaromVisibWave heightAir tempDewpointWater temp
2014-Oct-22 21:13N 47°57' W 122°36'1 1.5
2014-Oct-22 20:33N 47°57' W 122°34'4 4.5
2014-Oct-22 19:38N 47°54' W 122°30'1 6.3
2014-Oct-22 19:33N 47°53' W 122°30'2 5.1
2014-Oct-22 19:08N 47°52' W 122°28'3 5.6
2014-Oct-22 18:34N 47°48' W 122°27'0 6.0
2014-Oct-22 18:33N 47°48' W 122°27'7 6.7
2014-Oct-22 17:33N 47°42' W 122°28'0 0.0
2014-Oct-22 17:33N 47°42' W 122°28'5 4.9
2014-Oct-22 16:32N 47°38' W 122°24'0 0.0
2014-Oct-20 20:04N 47°37' W 122°24'0 0.8
2014-Oct-20 19:44N 47°37' W 122°24'2 5.5
2014-Oct-20 19:25N 47°38' W 122°26'0 3.2
2014-Oct-20 19:24N 47°38' W 122°26'0 0.4
2014-Oct-20 18:33N 47°38' W 122°27'2 1.4
2014-Oct-20 17:30N 47°37' W 122°24'1 0.0
2014-Oct-19 22:08N 47°38' W 122°23'0 0.3
2014-Oct-19 22:07N 47°38' W 122°23'1 1.4
2014-Oct-19 21:28N 47°37' W 122°24'0 5.0
2014-Oct-19 21:22N 47°37' W 122°24'4 4.5
2014-Oct-19 20:33N 47°33' W 122°26'5 4.5
2014-Oct-19 19:33N 47°29' W 122°29'7 3.4
2014-Oct-19 17:33N 47°23' W 122°32'3 2.6
2014-Oct-19 16:33N 47°21' W 122°29'1 0.8
2014-Oct-19 15:31N 47°22' W 122°28'0 0.0
2014-Oct-19 14:31N 47°22' W 122°28'0 0.0
2014-Oct-19 13:31N 47°22' W 122°28'0 0.0
2014-Oct-19 12:31N 47°22' W 122°28'0 0.0
2014-Oct-19 11:31N 47°22' W 122°28'0 0.0
2014-Oct-19 10:28N 47°22' W 122°28'0 0.0
2014-Oct-19 09:31N 47°22' W 122°28'0 0.0
2014-Oct-19 08:31N 47°22' W 122°28'0 0.0
2014-Oct-19 07:31N 47°22' W 122°28'0 0.0
2014-Oct-19 06:31N 47°22' W 122°28'0 0.0
2014-Oct-19 05:31N 47°22' W 122°28'0 0.0
2014-Oct-19 04:31N 47°22' W 122°28'0 0.0
2014-Oct-19 03:28N 47°22' W 122°28'0 0.0
2014-Oct-19 02:31N 47°22' W 122°28'0 0.0
2014-Oct-19 01:31N 47°22' W 122°28'0 0.0
2014-Oct-19 00:33N 47°22' W 122°28'3 3.1
2014-Oct-18 23:32N 47°19' W 122°29'  

Dump ship's entire track history